User: anonymous   Login
Location: Oshawa
(43.9000°N, 78.8670°W)
Time: 01:17:08
(UTC-04:00)
Language:

CZ-4C R/B - Orbit

View from above orbital plane
View from above orbital plane
View from above satellite
View from above satellite

Ground track
Ground track

The orbit data is extracted from the following two-line orbital elements,

1 32290U 07055B   15182.78015318  .00003828  00000-0  12830-3 0  9991
2 32290 097.5434 266.1967 0078403 155.7583 303.2062 15.28606566422136
Epoch (UTC): 01 July 2015 18:43:25
Eccentricity: 0.0078403
inclination: 97.5434°
perigee height: 426 km
apogee height: 534 km
right ascension of ascending node: 266.1967°
argument of perigee: 155.7583°
revolutions per day: 15.28606566
mean anomaly at epoch: 303.2062°
orbit number at epoch: 42213

The dashed part of the orbit path shows where the satellite is in the earth's shadow,  

DLR